Orlando International, FL

5:42 PM EDT on September 24, 2017 (GMT -0400)
Orlando International

Weather History for KMCO - February, 2013

Change the Weather History Date:

Friday, February 8, 2013

  Actual Average Record
Temperature  
Mean Temperature 71 °F 62 °F  
Max Temperature 81 °F 73 °F 88 °F (1921)
Min Temperature 60 °F 51 °F 22 °F (1895)
Degree Days  
Heating Degree Days 0 5  
Month to date heating degree days 41 40  
Since 1 July heating degree days 263 424  
Cooling Degree Days 6 2  
Month to date cooling degree days 19 16  
Year to date cooling degree days 120 61  
Growing Degree Days 22 (Base 50)    
Moisture  
Dew Point 58 °F    
Average Humidity 66    
Maximum Humidity 93    
Minimum Humidity 39    
Precipitation  
Precipitation 0.00 in 0.08 in 2.15 in (1969)
Month to date precipitation 0.00 0.66  
Year to date precipitation 0.24 3.01  
Sea Level Pressure  
Sea Level Pressure 29.98 in    
Wind  
Wind Speed 9 mph (WNW)    
Max Wind Speed 17 mph    
Max Gust Speed 21 mph    
Visibility 10 miles    
Events      
T = Trace of Precipitation, MM = Missing Value Source: NWS Daily Summary

Daily Weather History Graph

Daily Weather History Graph

Search for Another Location

Airport or City:

Trip Planner

Search our weather history database for the weather conditions in past years. The results will help you decide how hot, cold, wet, or windy it might be!

Date:

Astronomy

Feb. 08, 2013 Rise Set
Actual Time 7:08 AM EST 6:10 PM EST
Civil Twilight 6:44 AM EST 6:35 PM EST
Nautical Twilight 6:16 AM EST 7:03 PM EST
Astronomical Twilight 5:48 AM EST 7:30 PM EST
Moon 5:32 AM EST (2/8) 4:44 PM EST (2/8)
Length of Visible Light 11h 50m
Length of Day
11h 02m
Waning Crescent, 3% of the Moon is Illuminated
Feb 8
Waning Crescent
Feb 10
New
Feb 17
First Quarter
Feb 25
Full
Mar 4
Last Quarter

Hourly Weather History & Observations

Time (EST) Temp. Heat Index Dew Point Humidity Pressure Visibility Wind Dir Wind Speed Gust Speed Precip Events Conditions
12:53 AM 69.1 °F - 63.0 °F 81% 29.90 in 10.0 mi WSW 8.1 mph - N/A   Partly Cloudy
1:53 AM 68.0 °F - 63.0 °F 84% 29.89 in 10.0 mi WSW 9.2 mph - N/A   Clear
2:53 AM 68.0 °F - 63.0 °F 84% 29.89 in 10.0 mi West 6.9 mph - N/A   Clear
3:28 AM 68.0 °F - 64.4 °F 88% 29.91 in 10.0 mi West 9.2 mph - N/A   Mostly Cloudy
3:53 AM 68.0 °F - 64.0 °F 87% 29.90 in 10.0 mi West 9.2 mph - N/A   Overcast
4:53 AM 66.9 °F - 64.0 °F 90% 29.91 in 10.0 mi West 8.1 mph - N/A   Scattered Clouds
5:53 AM 66.0 °F - 62.1 °F 87% 29.93 in 10.0 mi West 9.2 mph - N/A   Partly Cloudy
6:53 AM 64.0 °F - 62.1 °F 93% 29.96 in 10.0 mi WNW 9.2 mph - N/A   Partly Cloudy
7:53 AM 64.0 °F - 60.1 °F 87% 29.98 in 10.0 mi WNW 8.1 mph - N/A   Scattered Clouds
8:53 AM 66.0 °F - 59.0 °F 78% 30.00 in 10.0 mi WNW 10.4 mph - N/A   Partly Cloudy
9:53 AM 69.1 °F - 57.9 °F 68% 30.02 in 10.0 mi NW 12.7 mph - N/A   Clear
10:53 AM 73.0 °F - 57.0 °F 57% 30.02 in 10.0 mi WNW 13.8 mph - N/A   Partly Cloudy
11:53 AM 75.9 °F - 57.0 °F 52% 30.01 in 10.0 mi NW 10.4 mph 20.7 mph N/A   Partly Cloudy
12:53 PM 78.1 °F - 55.9 °F 46% 30.00 in 10.0 mi WNW 12.7 mph - N/A   Clear
1:53 PM 79.0 °F - 57.0 °F 47% 29.97 in 10.0 mi NW 10.4 mph 17.3 mph N/A   Clear
2:53 PM 80.1 °F 80.1 °F 55.0 °F 42% 29.97 in 10.0 mi West 11.5 mph 19.6 mph N/A   Clear
3:53 PM 80.1 °F 80.0 °F 54.0 °F 40% 29.96 in 10.0 mi WNW 8.1 mph - N/A   Clear
4:53 PM 80.1 °F 79.9 °F 53.1 °F 39% 29.97 in 10.0 mi West 9.2 mph - N/A   Clear
5:53 PM 75.9 °F - 51.1 °F 42% 29.98 in 10.0 mi NW 8.1 mph - N/A   Clear
6:53 PM 72.0 °F - 52.0 °F 49% 30.00 in 10.0 mi NW 6.9 mph - N/A   Clear
7:53 PM 70.0 °F - 53.1 °F 55% 30.02 in 10.0 mi NW 6.9 mph - N/A   Clear
8:53 PM 66.0 °F - 54.0 °F 65% 30.05 in 10.0 mi WNW 5.8 mph - N/A   Clear
9:53 PM 64.0 °F - 55.0 °F 73% 30.08 in 10.0 mi NNW 6.9 mph - N/A   Partly Cloudy
10:53 PM 62.1 °F - 57.0 °F 84% 30.09 in 10.0 mi NW 8.1 mph - N/A   Partly Cloudy
11:53 PM 61.0 °F - 57.0 °F 87% 30.10 in 10.0 mi NW 5.8 mph - N/A   Partly Cloudy